Time,TemperatureF,DewpointF,PressureIn,WindDirection,WindDirectionDegrees,WindSpeedMPH,WindSpeedGustMPH,Humidity,HourlyPrecipIn,Conditions,Clouds,dailyrainin,SoftwareType,DateUTC
2013-09-24 00:03:00,58.7,52.2,29.90,SE,133,2.0,5.0,79,0.00,,,0.00,VWS V14.01,2013-09-24 05:03:00,
2013-09-24 00:08:00,58.6,52.1,29.90,SE,141,2.0,5.0,79,0.00,,,0.00,VWS V14.01,2013-09-24 05:08:00,
2013-09-24 00:13:00,58.4,51.9,29.90,SE,138,1.0,6.0,79,0.00,,,0.00,VWS V14.01,2013-09-24 05:13:00,
2013-09-24 00:18:00,58.4,51.9,29.90,SE,131,2.0,8.0,79,0.00,,,0.00,VWS V14.01,2013-09-24 05:18:00,
2013-09-24 00:23:00,58.3,52.2,29.90,SE,139,1.0,8.0,80,0.00,,,0.00,VWS V14.01,2013-09-24 05:23:00,
2013-09-24 00:28:00,58.2,52.1,29.91,SE,143,0.0,8.0,80,0.00,,,0.00,VWS V14.01,2013-09-24 05:28:00,
2013-09-24 00:33:00,58.1,52.0,29.91,ESE,121,0.0,5.0,80,0.00,,,0.00,VWS V14.01,2013-09-24 05:33:00,
2013-09-24 00:38:00,58.1,52.0,29.91,East,91,3.0,5.0,80,0.00,,,0.00,VWS V14.01,2013-09-24 05:38:00,
2013-09-24 00:44:00,58.0,51.9,29.91,SSE,162,3.0,6.0,80,0.00,,,0.00,VWS V14.01,2013-09-24 05:44:00,
2013-09-24 00:49:00,58.0,51.9,29.91,SSE,156,0.0,8.0,80,0.00,,,0.00,VWS V14.01,2013-09-24 05:49:00,
2013-09-24 00:54:00,57.9,51.8,29.91,SE,130,1.0,8.0,80,0.00,,,0.00,VWS V14.01,2013-09-24 05:54:00,
2013-09-24 00:59:00,57.9,51.8,29.91,SE,126,5.0,8.0,80,0.00,,,0.00,VWS V14.01,2013-09-24 05:59:00,
2013-09-24 01:04:00,57.8,51.7,29.91,SE,128,1.0,7.0,80,0.00,,,0.00,VWS V14.01,2013-09-24 06:04:00,
2013-09-24 01:09:00,57.7,51.6,29.91,ESE,121,2.0,7.0,80,0.00,,,0.00,VWS V14.01,2013-09-24 06:09:00,
2013-09-24 01:14:00,57.6,51.5,29.91,SSE,148,2.0,7.0,80,0.00,,,0.00,VWS V14.01,2013-09-24 06:14:00,
2013-09-24 01:19:00,57.5,51.4,29.91,SSE,161,2.0,7.0,80,0.00,,,0.00,VWS V14.01,2013-09-24 06:19:00,
2013-09-24 01:24:00,57.4,51.6,29.91,NW,305,2.0,7.0,81,0.00,,,0.00,VWS V14.01,2013-09-24 06:24:00,
2013-09-24 01:29:00,57.3,51.5,29.91,SSE,154,0.0,7.0,81,0.00,,,0.00,VWS V14.01,2013-09-24 06:29:00,
2013-09-24 01:34:00,57.1,51.3,29.91,SE,127,1.0,7.0,81,0.00,,,0.00,VWS V14.01,2013-09-24 06:34:00,
2013-09-24 01:39:00,56.9,51.1,29.91,ESE,114,1.0,7.0,81,0.00,,,0.00,VWS V14.01,2013-09-24 06:39:00,
2013-09-24 01:44:00,56.8,51.0,29.91,SSW,206,1.0,7.0,81,0.00,,,0.00,VWS V14.01,2013-09-24 06:44:00,
2013-09-24 01:49:00,56.8,51.0,29.91,ESE,107,1.0,7.0,81,0.00,,,0.00,VWS V14.01,2013-09-24 06:49:00,
2013-09-24 01:54:00,56.7,50.9,29.91,ESE,106,3.0,7.0,81,0.00,,,0.00,VWS V14.01,2013-09-24 06:54:00,
2013-09-24 01:59:00,56.5,51.1,29.91,South,172,3.0,7.0,82,0.00,,,0.00,VWS V14.01,2013-09-24 06:59:00,
2013-09-24 02:04:00,56.3,50.9,29.91,ESE,123,2.0,5.0,82,0.00,,,0.00,VWS V14.01,2013-09-24 07:04:00,
2013-09-24 02:09:00,56.2,50.8,29.91,ESE,123,2.0,5.0,82,0.00,,,0.00,VWS V14.01,2013-09-24 07:09:00,
2013-09-24 02:14:00,56.1,51.0,29.91,ESE,109,1.0,5.0,83,0.00,,,0.00,VWS V14.01,2013-09-24 07:14:00,
2013-09-24 02:20:00,55.9,50.8,29.91,SE,135,1.0,5.0,83,0.00,,,0.00,VWS V14.01,2013-09-24 07:20:00,
2013-09-24 02:25:00,55.8,50.7,29.91,ESE,121,0.0,5.0,83,0.00,,,0.00,VWS V14.01,2013-09-24 07:25:00,
2013-09-24 02:30:00,55.6,50.8,29.91,ESE,115,1.0,5.0,84,0.00,,,0.00,VWS V14.01,2013-09-24 07:30:00,
2013-09-24 02:35:00,55.4,50.7,29.91,ESE,115,0.0,2.0,84,0.00,,,0.00,VWS V14.01,2013-09-24 07:35:00,
2013-09-24 02:40:00,55.2,50.8,29.91,East,97,0.0,2.0,85,0.00,,,0.00,VWS V14.01,2013-09-24 07:40:00,
2013-09-24 02:45:00,55.0,50.6,29.91,ESE,114,1.0,2.0,85,0.00,,,0.00,VWS V14.01,2013-09-24 07:45:00,
2013-09-24 02:50:00,54.8,50.4,29.91,ESE,114,3.0,3.0,85,0.00,,,0.00,VWS V14.01,2013-09-24 07:50:00,
2013-09-24 02:55:00,54.6,50.2,29.91,ESE,116,1.0,3.0,85,0.00,,,0.00,VWS V14.01,2013-09-24 07:55:00,
2013-09-24 03:00:00,54.5,50.1,29.91,ESE,112,2.0,3.0,85,0.00,,,0.00,VWS V14.01,2013-09-24 08:00:00,
2013-09-24 03:05:00,54.4,50.3,29.91,SE,126,1.0,4.0,86,0.00,,,0.00,VWS V14.01,2013-09-24 08:05:00,
2013-09-24 03:10:00,54.2,50.1,29.91,ESE,122,0.0,4.0,86,0.00,,,0.00,VWS V14.01,2013-09-24 08:10:00,
2013-09-24 03:15:00,54.0,49.9,29.91,ESE,122,0.0,4.0,86,0.00,,,0.00,VWS V14.01,2013-09-24 08:15:00,
2013-09-24 03:20:00,53.9,50.1,29.91,ESE,122,0.0,4.0,87,0.00,,,0.00,VWS V14.01,2013-09-24 08:20:00,
2013-09-24 03:25:00,53.7,49.9,29.90,ESE,122,1.0,4.0,87,0.00,,,0.00,VWS V14.01,2013-09-24 08:25:00,
2013-09-24 03:31:00,53.6,49.8,29.91,ESE,122,0.0,0.0,87,0.00,,,0.00,VWS V14.01,2013-09-24 08:31:00,
2013-09-24 03:36:00,53.4,49.6,29.90,ESE,122,0.0,2.0,87,0.00,,,0.00,VWS V14.01,2013-09-24 08:36:00,
2013-09-24 03:41:00,53.3,49.8,29.90,SE,130,0.0,2.0,88,0.00,,,0.00,VWS V14.01,2013-09-24 08:41:00,
2013-09-24 03:46:00,53.2,49.7,29.90,SE,130,0.0,2.0,88,0.00,,,0.00,VWS V14.01,2013-09-24 08:46:00,
2013-09-24 03:51:00,53.1,49.7,29.91,SE,125,1.0,2.0,88,0.00,,,0.00,VWS V14.01,2013-09-24 08:51:00,
2013-09-24 03:56:00,52.9,49.5,29.91,SE,125,0.0,2.0,88,0.00,,,0.00,VWS V14.01,2013-09-24 08:56:00,
2013-09-24 04:01:00,52.8,49.7,29.91,SE,125,0.0,0.0,89,0.00,,,0.00,VWS V14.01,2013-09-24 09:01:00,
2013-09-24 04:06:00,52.6,49.5,29.90,ESE,122,0.0,1.0,89,0.00,,,0.00,VWS V14.01,2013-09-24 09:06:00,
2013-09-24 04:11:00,52.5,49.4,29.91,SE,129,1.0,5.0,89,0.00,,,0.00,VWS V14.01,2013-09-24 09:11:00,
2013-09-24 04:16:00,52.5,49.4,29.91,SE,133,0.0,5.0,89,0.00,,,0.00,VWS V14.01,2013-09-24 09:16:00,
2013-09-24 04:21:00,52.5,49.4,29.90,NE,55,0.0,5.0,89,0.00,,,0.00,VWS V14.01,2013-09-24 09:21:00,
2013-09-24 04:26:00,52.5,49.4,29.90,ESE,108,1.0,5.0,89,0.00,,,0.00,VWS V14.01,2013-09-24 09:26:00,
2013-09-24 04:31:00,52.5,49.4,29.91,ESE,118,0.0,1.0,89,0.00,,,0.00,VWS V14.01,2013-09-24 09:31:00,
2013-09-24 04:36:00,52.5,49.4,29.90,ESE,104,0.0,3.0,89,0.00,,,0.00,VWS V14.01,2013-09-24 09:36:00,
2013-09-24 04:41:00,52.4,49.3,29.90,ESE,108,0.0,3.0,89,0.00,,,0.00,VWS V14.01,2013-09-24 09:41:00,
2013-09-24 04:46:00,52.3,49.2,29.90,SSE,149,2.0,3.0,89,0.00,,,0.00,VWS V14.01,2013-09-24 09:46:00,
2013-09-24 04:51:00,52.3,49.2,29.91,ESE,120,1.0,3.0,89,0.00,,,0.00,VWS V14.01,2013-09-24 09:51:00,
2013-09-24 04:56:00,52.2,49.1,29.91,SE,136,2.0,4.0,89,0.00,,,0.00,VWS V14.01,2013-09-24 09:56:00,
2013-09-24 05:02:00,52.2,49.1,29.91,ESE,120,1.0,1.0,89,0.00,,,0.00,VWS V14.01,2013-09-24 10:02:00,
2013-09-24 05:07:00,52.2,49.1,29.91,ESE,120,1.0,2.0,89,0.00,,,0.00,VWS V14.01,2013-09-24 10:07:00,
2013-09-24 05:12:00,52.1,49.0,29.91,ESE,115,0.0,2.0,89,0.00,,,0.00,VWS V14.01,2013-09-24 10:12:00,
2013-09-24 05:17:00,52.1,49.0,29.91,SE,127,1.0,3.0,89,0.00,,,0.00,VWS V14.01,2013-09-24 10:17:00,
2013-09-24 05:22:00,52.0,48.9,29.91,SE,127,0.0,3.0,89,0.00,,,0.00,VWS V14.01,2013-09-24 10:22:00,
2013-09-24 05:27:00,51.9,48.8,29.91,ESE,112,0.0,5.0,89,0.00,,,0.00,VWS V14.01,2013-09-24 10:27:00,
2013-09-24 05:32:00,51.9,48.8,29.91,ESE,120,0.0,4.0,89,0.00,,,0.00,VWS V14.01,2013-09-24 10:32:00,
2013-09-24 05:37:00,51.9,48.8,29.91,ESE,120,3.0,4.0,89,0.00,,,0.00,VWS V14.01,2013-09-24 10:37:00,
2013-09-24 05:42:00,51.9,48.8,29.91,ESE,111,1.0,4.0,89,0.00,,,0.00,VWS V14.01,2013-09-24 10:42:00,
2013-09-24 05:47:00,51.9,48.8,29.91,ESE,113,0.0,4.0,89,0.00,,,0.00,VWS V14.01,2013-09-24 10:47:00,
2013-09-24 05:52:00,51.9,48.8,29.91,ESE,120,1.0,4.0,89,0.00,,,0.00,VWS V14.01,2013-09-24 10:52:00,
2013-09-24 05:57:00,51.8,48.7,29.91,ESE,110,1.0,4.0,89,0.00,,,0.00,VWS V14.01,2013-09-24 10:57:00,
2013-09-24 06:02:00,51.7,48.6,29.91,SE,133,0.0,2.0,89,0.00,,,0.00,VWS V14.01,2013-09-24 11:02:00,
2013-09-24 06:07:00,51.7,48.6,29.91,ESE,120,2.0,4.0,89,0.00,,,0.00,VWS V14.01,2013-09-24 11:07:00,
2013-09-24 06:12:00,51.6,48.5,29.91,SE,135,0.0,5.0,89,0.00,,,0.00,VWS V14.01,2013-09-24 11:12:00,
2013-09-24 06:17:00,51.6,48.8,29.91,SE,134,0.0,5.0,90,0.00,,,0.00,VWS V14.01,2013-09-24 11:17:00,
2013-09-24 06:22:00,51.4,48.6,29.92,ESE,111,0.0,5.0,90,0.00,,,0.00,VWS V14.01,2013-09-24 11:22:00,
2013-09-24 06:27:00,51.4,48.6,29.91,ESE,121,1.0,5.0,90,0.00,,,0.00,VWS V14.01,2013-09-24 11:27:00,
2013-09-24 06:32:00,51.3,48.5,29.92,SSE,147,0.0,4.0,90,0.00,,,0.00,VWS V14.01,2013-09-24 11:32:00,
2013-09-24 06:37:00,51.3,48.5,29.92,SE,127,1.0,5.0,90,0.00,,,0.00,VWS V14.01,2013-09-24 11:37:00,
2013-09-24 06:43:00,51.2,48.4,29.91,ESE,121,0.0,5.0,90,0.00,,,0.00,VWS V14.01,2013-09-24 11:43:00,
2013-09-24 06:48:00,51.2,48.4,29.92,SE,125,0.0,5.0,90,0.00,,,0.00,VWS V14.01,2013-09-24 11:48:00,
2013-09-24 06:53:00,51.1,48.3,29.92,SSE,167,1.0,5.0,90,0.00,,,0.00,VWS V14.01,2013-09-24 11:53:00,
2013-09-24 06:58:00,51.1,48.3,29.92,SE,130,1.0,5.0,90,0.00,,,0.00,VWS V14.01,2013-09-24 11:58:00,
2013-09-24 07:03:00,51.1,48.3,29.92,SE,137,1.0,4.0,90,0.00,,,0.00,VWS V14.01,2013-09-24 12:03:00,
2013-09-24 07:08:00,51.1,48.3,29.92,SE,130,0.0,5.0,90,0.00,,,0.00,VWS V14.01,2013-09-24 12:08:00,
2013-09-24 07:13:00,51.1,48.3,29.92,ESE,108,3.0,5.0,90,0.00,,,0.00,VWS V14.01,2013-09-24 12:13:00,
2013-09-24 07:18:00,51.2,48.4,29.92,SE,127,3.0,6.0,90,0.00,,,0.00,VWS V14.01,2013-09-24 12:18:00,
2013-09-24 07:23:00,51.2,48.1,29.92,SE,136,3.0,6.0,89,0.00,,,0.00,VWS V14.01,2013-09-24 12:23:00,
2013-09-24 07:28:00,51.3,48.2,29.92,ESE,114,2.0,6.0,89,0.00,,,0.00,VWS V14.01,2013-09-24 12:28:00,
2013-09-24 07:33:00,51.4,48.3,29.92,SE,138,1.0,4.0,89,0.00,,,0.00,VWS V14.01,2013-09-24 12:33:00,
2013-09-24 07:38:00,51.4,48.6,29.92,ESE,111,1.0,4.0,90,0.00,,,0.00,VWS V14.01,2013-09-24 12:38:00,
2013-09-24 07:43:00,51.6,48.8,29.92,SE,126,1.0,4.0,90,0.00,,,0.00,VWS V14.01,2013-09-24 12:43:00,
2013-09-24 07:48:00,51.7,48.6,29.92,SE,137,0.0,4.0,89,0.00,,,0.00,VWS V14.01,2013-09-24 12:48:00,
2013-09-24 07:53:00,51.9,48.8,29.92,SE,126,1.0,5.0,89,0.00,,,0.00,VWS V14.01,2013-09-24 12:53:00,
2013-09-24 07:58:00,52.0,48.9,29.92,ESE,114,0.0,5.0,89,0.00,,,0.00,VWS V14.01,2013-09-24 12:58:00,
2013-09-24 08:03:00,52.4,49.3,29.92,SSE,168,1.0,5.0,89,0.00,,,0.00,VWS V14.01,2013-09-24 13:03:00,
2013-09-24 08:08:00,53.1,49.7,29.93,ESE,111,5.0,6.0,88,0.00,,,0.00,VWS V14.01,2013-09-24 13:08:00,
2013-09-24 08:13:00,53.9,49.8,29.93,ESE,105,2.0,7.0,86,0.00,,,0.00,VWS V14.01,2013-09-24 13:13:00,
2013-09-24 08:19:00,54.7,50.3,29.93,SE,129,6.0,7.0,85,0.00,,,0.00,VWS V14.01,2013-09-24 13:19:00,
2013-09-24 08:24:00,55.1,50.0,29.93,ESE,107,2.0,8.0,83,0.00,,,0.00,VWS V14.01,2013-09-24 13:24:00,
2013-09-24 08:29:00,55.2,49.8,29.93,SE,126,3.0,8.0,82,0.00,,,0.00,VWS V14.01,2013-09-24 13:29:00,
2013-09-24 08:34:00,55.3,50.2,29.93,SE,130,2.0,4.0,83,0.00,,,0.00,VWS V14.01,2013-09-24 13:34:00,
2013-09-24 08:39:00,55.5,50.1,29.93,East,87,3.0,7.0,82,0.00,,,0.00,VWS V14.01,2013-09-24 13:39:00,
2013-09-24 08:44:00,55.5,50.1,29.93,SE,127,2.0,7.0,82,0.00,,,0.00,VWS V14.01,2013-09-24 13:44:00,
2013-09-24 08:49:00,55.7,50.6,29.93,SSE,148,2.0,7.0,83,0.00,,,0.00,VWS V14.01,2013-09-24 13:49:00,
2013-09-24 08:54:00,56.1,50.4,29.94,ESE,115,4.0,7.0,81,0.00,,,0.00,VWS V14.01,2013-09-24 13:54:00,
2013-09-24 08:59:00,56.3,50.2,29.94,East,98,2.0,8.0,80,0.00,,,0.00,VWS V14.01,2013-09-24 13:59:00,
2013-09-24 09:04:00,56.3,50.2,29.94,SE,129,1.0,10.0,80,0.00,,,0.00,VWS V14.01,2013-09-24 14:04:00,
2013-09-24 09:09:00,56.4,50.7,29.94,ESE,111,3.0,10.0,81,0.00,,,0.00,VWS V14.01,2013-09-24 14:09:00,
2013-09-24 09:14:00,56.5,50.4,29.94,SE,129,1.0,10.0,80,0.00,,,0.00,VWS V14.01,2013-09-24 14:14:00,
2013-09-24 09:19:00,56.6,50.2,29.94,SE,137,1.0,10.0,79,0.00,,,0.00,VWS V14.01,2013-09-24 14:19:00,
2013-09-24 09:24:00,56.9,50.8,29.94,ENE,70,0.0,10.0,80,0.00,,,0.00,VWS V14.01,2013-09-24 14:24:00,
2013-09-24 09:29:00,57.2,50.4,29.94,SE,129,4.0,10.0,78,0.00,,,0.00,VWS V14.01,2013-09-24 14:29:00,
2013-09-24 09:34:00,57.5,50.7,29.94,East,86,3.0,9.0,78,0.00,,,0.00,VWS V14.01,2013-09-24 14:34:00,
2013-09-24 09:39:00,57.7,51.2,29.94,ESE,116,4.0,11.0,79,0.00,,,0.00,VWS V14.01,2013-09-24 14:39:00,
2013-09-24 09:45:00,58.1,51.3,29.94,ESE,107,1.0,11.0,78,0.00,,,0.00,VWS V14.01,2013-09-24 14:45:00,
2013-09-24 09:50:00,58.4,50.9,29.94,East,89,6.0,11.0,76,0.00,,,0.00,VWS V14.01,2013-09-24 14:50:00,
2013-09-24 09:55:00,58.7,51.2,29.94,ESE,116,7.0,11.0,76,0.00,,,0.00,VWS V14.01,2013-09-24 14:55:00,
2013-09-24 10:00:00,58.9,51.0,29.94,SE,130,1.0,11.0,75,0.00,,,0.00,VWS V14.01,2013-09-24 15:00:00,
2013-09-24 10:05:00,59.5,52.3,29.94,ENE,76,2.0,4.0,77,0.00,,,0.00,VWS V14.01,2013-09-24 15:05:00,
2013-09-24 10:10:00,59.8,51.5,29.94,ESE,121,1.0,7.0,74,0.00,,,0.00,VWS V14.01,2013-09-24 15:10:00,
2013-09-24 10:15:00,59.7,51.4,29.94,SSE,162,1.0,7.0,74,0.00,,,0.00,VWS V14.01,2013-09-24 15:15:00,
2013-09-24 10:21:00,59.7,51.8,29.94,ESE,115,1.0,7.0,75,0.00,,,0.00,VWS V14.01,2013-09-24 15:21:00,
2013-09-24 10:26:00,59.6,52.0,29.95,South,174,1.0,7.0,76,0.00,,,0.00,VWS V14.01,2013-09-24 15:26:00,
2013-09-24 10:31:00,59.6,51.7,29.95,ENE,77,0.0,0.0,75,0.00,,,0.00,VWS V14.01,2013-09-24 15:31:00,
2013-09-24 10:36:00,59.7,52.1,29.95,East,79,0.0,1.0,76,0.00,,,0.00,VWS V14.01,2013-09-24 15:36:00,
2013-09-24 10:41:00,59.9,52.3,29.95,SSE,164,1.0,2.0,76,0.00,,,0.00,VWS V14.01,2013-09-24 15:41:00,
2013-09-24 10:46:00,60.0,52.4,29.94,ESE,113,2.0,3.0,76,0.00,,,0.00,VWS V14.01,2013-09-24 15:46:00,
2013-09-24 10:51:00,60.2,52.3,29.94,SE,131,2.0,4.0,75,0.00,,,0.00,VWS V14.01,2013-09-24 15:51:00,
2013-09-24 10:56:00,60.7,52.7,29.94,ESE,102,2.0,5.0,75,0.00,,,0.00,VWS V14.01,2013-09-24 15:56:00,
2013-09-24 11:01:00,61.1,53.1,29.94,SSE,147,3.0,3.0,75,0.00,,,0.00,VWS V14.01,2013-09-24 16:01:00,
2013-09-24 11:06:00,61.4,52.7,29.94,SE,140,3.0,7.0,73,0.00,,,0.00,VWS V14.01,2013-09-24 16:06:00,
2013-09-24 11:11:00,61.8,53.4,29.94,SSE,152,1.0,7.0,74,0.00,,,0.00,VWS V14.01,2013-09-24 16:11:00,
2013-09-24 11:16:00,62.3,53.5,29.93,ESE,103,4.0,7.0,73,0.00,,,0.00,VWS V14.01,2013-09-24 16:16:00,
2013-09-24 11:21:00,63.0,53.1,29.93,East,97,5.0,8.0,70,0.00,,,0.00,VWS V14.01,2013-09-24 16:21:00,
2013-09-24 11:26:00,63.4,53.8,29.93,SE,135,4.0,8.0,71,0.00,,,0.00,VWS V14.01,2013-09-24 16:26:00,
2013-09-24 11:31:00,63.8,54.6,29.92,East,98,0.0,3.0,72,0.00,,,0.00,VWS V14.01,2013-09-24 16:31:00,
2013-09-24 11:37:00,64.0,54.8,29.92,ESE,122,0.0,8.0,72,0.00,,,0.00,VWS V14.01,2013-09-24 16:37:00,
2013-09-24 11:42:00,64.1,54.5,29.92,ESE,112,4.0,8.0,71,0.00,,,0.00,VWS V14.01,2013-09-24 16:42:00,
2013-09-24 11:47:00,64.4,54.8,29.92,South,174,0.0,9.0,71,0.00,,,0.00,VWS V14.01,2013-09-24 16:47:00,
2013-09-24 11:52:00,64.7,55.5,29.92,ESE,102,0.0,9.0,72,0.00,,,0.00,VWS V14.01,2013-09-24 16:52:00,
2013-09-24 11:57:00,65.1,55.1,29.92,SE,129,3.0,9.0,70,0.00,,,0.00,VWS V14.01,2013-09-24 16:57:00,
2013-09-24 12:02:00,65.6,55.2,29.91,ESE,120,3.0,3.0,69,0.00,,,0.00,VWS V14.01,2013-09-24 17:02:00,
2013-09-24 12:07:00,66.0,55.5,29.91,SE,124,1.0,8.0,69,0.00,,,0.00,VWS V14.01,2013-09-24 17:07:00,
2013-09-24 12:12:00,66.3,55.4,29.92,South,188,1.0,9.0,68,0.00,,,0.00,VWS V14.01,2013-09-24 17:12:00,
2013-09-24 12:17:00,66.7,56.2,29.92,ESE,109,0.0,9.0,69,0.00,,,0.00,VWS V14.01,2013-09-24 17:17:00,
2013-09-24 12:22:00,67.2,56.7,29.92,ENE,76,3.0,9.0,69,0.00,,,0.00,VWS V14.01,2013-09-24 17:22:00,
2013-09-24 12:27:00,67.7,56.4,29.92,SE,125,4.0,9.0,67,0.00,,,0.00,VWS V14.01,2013-09-24 17:27:00,
2013-09-24 12:32:00,68.0,56.7,29.91,ESE,104,1.0,5.0,67,0.00,,,0.00,VWS V14.01,2013-09-24 17:32:00,
2013-09-24 12:37:00,68.2,56.4,29.91,SE,139,1.0,8.0,66,0.00,,,0.00,VWS V14.01,2013-09-24 17:37:00,
2013-09-24 12:42:00,68.5,57.1,29.91,SSE,149,0.0,8.0,67,0.00,,,0.00,VWS V14.01,2013-09-24 17:42:00,
2013-09-24 12:47:00,68.7,56.0,29.91,ESE,102,2.0,8.0,64,0.00,,,0.00,VWS V14.01,2013-09-24 17:47:00,
2013-09-24 12:52:00,68.9,57.5,29.91,ESE,113,2.0,8.0,67,0.00,,,0.00,VWS V14.01,2013-09-24 17:52:00,
2013-09-24 12:57:00,69.2,56.1,29.91,SE,137,2.0,8.0,63,0.00,,,0.00,VWS V14.01,2013-09-24 17:57:00,
2013-09-24 13:02:00,69.4,56.3,29.91,East,96,6.0,6.0,63,0.00,,,0.00,VWS V14.01,2013-09-24 18:02:00,
2013-09-24 13:08:00,69.6,56.0,29.91,ESE,102,1.0,8.0,62,0.00,,,0.00,VWS V14.01,2013-09-24 18:08:00,
2013-09-24 13:13:00,69.8,56.7,29.91,SSE,153,5.0,8.0,63,0.00,,,0.00,VWS V14.01,2013-09-24 18:13:00,
2013-09-24 13:18:00,69.9,56.8,29.91,ESE,122,2.0,8.0,63,0.00,,,0.00,VWS V14.01,2013-09-24 18:18:00,
2013-09-24 13:23:00,70.2,56.6,29.91,South,187,0.0,8.0,62,0.00,,,0.00,VWS V14.01,2013-09-24 18:23:00,
2013-09-24 13:28:00,70.6,57.8,29.90,East,91,3.0,8.0,64,0.00,,,0.00,VWS V14.01,2013-09-24 18:28:00,
2013-09-24 13:33:00,70.9,57.2,29.91,ESE,106,0.0,2.0,62,0.00,,,0.00,VWS V14.01,2013-09-24 18:33:00,
2013-09-24 13:38:00,71.2,56.6,29.91,SE,128,4.0,4.0,60,0.00,,,0.00,VWS V14.01,2013-09-24 18:38:00,
2013-09-24 13:43:00,71.3,57.2,29.91,ENE,69,1.0,6.0,61,0.00,,,0.00,VWS V14.01,2013-09-24 18:43:00,
2013-09-24 13:48:00,71.4,57.3,29.91,SE,137,0.0,6.0,61,0.00,,,0.00,VWS V14.01,2013-09-24 18:48:00,
2013-09-24 13:53:00,71.5,56.0,29.91,ESE,121,2.0,11.0,58,0.00,,,0.00,VWS V14.01,2013-09-24 18:53:00,
2013-09-24 13:58:00,71.6,55.6,29.91,ESE,111,0.0,11.0,57,0.00,,,0.00,VWS V14.01,2013-09-24 18:58:00,
2013-09-24 14:03:00,71.8,55.3,29.90,SE,145,2.0,6.0,56,0.00,,,0.00,VWS V14.01,2013-09-24 19:03:00,
2013-09-24 14:08:00,71.8,55.8,29.90,ESE,120,2.0,6.0,57,0.00,,,0.00,VWS V14.01,2013-09-24 19:08:00,
2013-09-24 14:13:00,71.9,55.4,29.90,SE,145,2.0,8.0,56,0.00,,,0.00,VWS V14.01,2013-09-24 19:13:00,
2013-09-24 14:18:00,71.8,55.8,29.90,East,91,5.0,10.0,57,0.00,,,0.00,VWS V14.01,2013-09-24 19:18:00,
2013-09-24 14:23:00,71.9,55.9,29.90,SSE,164,4.0,10.0,57,0.00,,,0.00,VWS V14.01,2013-09-24 19:23:00,
2013-09-24 14:28:00,71.9,54.4,29.90,SSE,166,0.0,10.0,54,0.00,,,0.00,VWS V14.01,2013-09-24 19:28:00,
2013-09-24 14:33:00,72.0,55.5,29.90,SE,137,2.0,4.0,56,0.00,,,0.00,VWS V14.01,2013-09-24 19:33:00,
2013-09-24 14:39:00,72.2,54.7,29.90,ESE,106,0.0,4.0,54,0.00,,,0.00,VWS V14.01,2013-09-24 19:39:00,
2013-09-24 14:44:00,72.4,55.3,29.90,North,354,0.0,5.0,55,0.00,,,0.00,VWS V14.01,2013-09-24 19:44:00,
2013-09-24 14:49:00,72.6,55.0,29.90,ESE,103,1.0,5.0,54,0.00,,,0.00,VWS V14.01,2013-09-24 19:49:00,
2013-09-24 14:54:00,72.7,55.1,29.90,South,189,1.0,7.0,54,0.00,,,0.00,VWS V14.01,2013-09-24 19:54:00,
2013-09-24 14:59:00,72.7,55.1,29.90,ESE,121,3.0,7.0,54,0.00,,,0.00,VWS V14.01,2013-09-24 19:59:00,
2013-09-24 15:05:00,72.9,55.8,29.89,ESE,105,2.0,4.0,55,0.00,,,0.00,VWS V14.01,2013-09-24 20:05:00,
2013-09-24 15:10:00,73.0,54.4,29.89,SE,146,1.0,4.0,52,0.00,,,0.00,VWS V14.01,2013-09-24 20:10:00,
2013-09-24 15:15:00,73.0,54.9,29.90,South,187,0.0,5.0,53,0.00,,,0.00,VWS V14.01,2013-09-24 20:15:00,
2013-09-24 15:20:00,73.2,55.6,29.89,ESE,120,1.0,5.0,54,0.00,,,0.00,VWS V14.01,2013-09-24 20:20:00,
2013-09-24 15:25:00,73.0,55.4,29.89,SE,129,1.0,5.0,54,0.00,,,0.00,VWS V14.01,2013-09-24 20:25:00,
2013-09-24 15:30:00,72.9,54.8,29.89,East,100,1.0,8.0,53,0.00,,,0.00,VWS V14.01,2013-09-24 20:30:00,
2013-09-24 15:35:00,72.9,55.3,29.89,East,94,2.0,6.0,54,0.00,,,0.00,VWS V14.01,2013-09-24 20:35:00,
2013-09-24 15:40:00,73.0,54.4,29.89,ESE,111,1.0,9.0,52,0.00,,,0.00,VWS V14.01,2013-09-24 20:40:00,
2013-09-24 15:45:00,73.2,54.0,29.89,ENE,62,0.0,9.0,51,0.00,,,0.00,VWS V14.01,2013-09-24 20:45:00,
2013-09-24 15:50:00,73.3,54.1,29.89,ESE,107,3.0,9.0,51,0.00,,,0.00,VWS V14.01,2013-09-24 20:50:00,
2013-09-24 15:55:00,73.4,53.7,29.89,SSW,199,1.0,9.0,50,0.00,,,0.00,VWS V14.01,2013-09-24 20:55:00,
2013-09-24 16:00:00,73.5,55.3,29.89,SE,135,0.0,9.0,53,0.00,,,0.00,VWS V14.01,2013-09-24 21:00:00,
2013-09-24 16:05:00,73.6,53.8,29.88,ESE,102,1.0,4.0,50,0.00,,,0.00,VWS V14.01,2013-09-24 21:05:00,
2013-09-24 16:10:00,73.5,55.3,29.88,North,354,0.0,4.0,53,0.00,,,0.00,VWS V14.01,2013-09-24 21:10:00,
2013-09-24 16:16:00,73.5,55.3,29.88,East,94,0.0,4.0,53,0.00,,,0.00,VWS V14.01,2013-09-24 21:16:00,
2013-09-24 16:21:00,73.5,55.9,29.88,South,179,1.0,4.0,54,0.00,,,0.00,VWS V14.01,2013-09-24 21:21:00,
2013-09-24 16:26:00,73.4,55.2,29.88,NE,54,0.0,4.0,53,0.00,,,0.00,VWS V14.01,2013-09-24 21:26:00,
2013-09-24 16:31:00,73.3,55.2,29.88,SE,139,0.0,1.0,53,0.00,,,0.00,VWS V14.01,2013-09-24 21:31:00,
2013-09-24 16:36:00,73.2,55.1,29.88,SE,143,0.0,3.0,53,0.00,,,0.00,VWS V14.01,2013-09-24 21:36:00,
2013-09-24 16:41:00,73.1,56.0,29.88,ESE,111,1.0,3.0,55,0.00,,,0.00,VWS V14.01,2013-09-24 21:41:00,
2013-09-24 16:46:00,73.1,55.0,29.88,SE,133,2.0,5.0,53,0.00,,,0.00,VWS V14.01,2013-09-24 21:46:00,
2013-09-24 16:51:00,73.0,54.9,29.88,SE,125,1.0,6.0,53,0.00,,,0.00,VWS V14.01,2013-09-24 21:51:00,
2013-09-24 16:56:00,73.0,56.4,29.89,SE,128,1.0,6.0,56,0.00,,,0.00,VWS V14.01,2013-09-24 21:56:00,
2013-09-24 17:01:00,72.8,54.7,29.88,SE,126,3.0,3.0,53,0.00,,,0.00,VWS V14.01,2013-09-24 22:01:00,
2013-09-24 17:06:00,72.7,55.1,29.88,ESE,120,0.0,3.0,54,0.00,,,0.00,VWS V14.01,2013-09-24 22:06:00,
2013-09-24 17:11:00,72.7,53.5,29.88,SSE,165,1.0,3.0,51,0.00,,,0.00,VWS V14.01,2013-09-24 22:11:00,
2013-09-24 17:16:00,72.7,55.1,29.89,ESE,108,0.0,4.0,54,0.00,,,0.00,VWS V14.01,2013-09-24 22:16:00,
2013-09-24 17:21:00,72.6,54.5,29.89,ESE,108,0.0,4.0,53,0.00,,,0.00,VWS V14.01,2013-09-24 22:21:00,
2013-09-24 17:26:00,72.4,56.3,29.89,ESE,109,0.0,4.0,57,0.00,,,0.00,VWS V14.01,2013-09-24 22:26:00,
2013-09-24 17:32:00,72.1,56.0,29.89,ESE,112,0.0,1.0,57,0.00,,,0.00,VWS V14.01,2013-09-24 22:32:00,
2013-09-24 17:37:00,71.8,56.7,29.89,ESE,112,0.0,1.0,59,0.00,,,0.00,VWS V14.01,2013-09-24 22:37:00,
2013-09-24 17:42:00,71.5,56.9,29.89,ESE,112,1.0,1.0,60,0.00,,,0.00,VWS V14.01,2013-09-24 22:42:00,
2013-09-24 17:47:00,71.2,56.6,29.89,ESE,114,2.0,2.0,60,0.00,,,0.00,VWS V14.01,2013-09-24 22:47:00,
2013-09-24 17:52:00,70.9,55.9,29.89,SE,133,1.0,3.0,59,0.00,,,0.00,VWS V14.01,2013-09-24 22:52:00,
2013-09-24 18:02:00,70.2,56.1,29.89,East,100,0.0,0.0,61,0.00,,,0.00,VWS V14.01,2013-09-24 23:02:00,
2013-09-24 18:07:00,70.0,56.4,29.89,ESE,116,0.0,3.0,62,0.00,,,0.00,VWS V14.01,2013-09-24 23:07:00,
2013-09-24 18:12:00,69.7,55.2,29.89,SE,131,0.0,3.0,60,0.00,,,0.00,VWS V14.01,2013-09-24 23:12:00,
2013-09-24 18:17:00,69.5,56.8,29.89,SE,131,0.0,3.0,64,0.00,,,0.00,VWS V14.01,2013-09-24 23:17:00,
2013-09-24 18:22:00,69.1,56.8,29.89,SE,130,0.0,3.0,65,0.00,,,0.00,VWS V14.01,2013-09-24 23:22:00,
2013-09-24 18:27:00,68.8,56.6,29.89,SE,131,0.0,3.0,65,0.00,,,0.00,VWS V14.01,2013-09-24 23:27:00,
2013-09-24 18:32:00,68.4,56.6,29.89,SE,130,0.0,0.0,66,0.00,,,0.00,VWS V14.01,2013-09-24 23:32:00,
2013-09-24 18:37:00,68.1,57.2,29.89,SE,130,0.0,0.0,68,0.00,,,0.00,VWS V14.01,2013-09-24 23:37:00,
2013-09-24 18:43:00,67.7,56.8,29.89,SE,130,0.0,0.0,68,0.00,,,0.00,VWS V14.01,2013-09-24 23:43:00,
2013-09-24 18:48:00,67.4,56.5,29.89,SE,130,0.0,0.0,68,0.00,,,0.00,VWS V14.01,2013-09-24 23:48:00,
2013-09-24 18:53:00,67.0,56.1,29.89,SE,130,0.0,1.0,68,0.00,,,0.00,VWS V14.01,2013-09-24 23:53:00,
2013-09-24 18:58:00,66.7,56.2,29.89,SE,131,0.0,2.0,69,0.00,,,0.00,VWS V14.01,2013-09-24 23:58:00,
2013-09-24 19:03:00,66.3,56.2,29.89,SE,131,0.0,1.0,70,0.00,,,0.00,VWS V14.01,2013-09-25 00:03:00,
2013-09-24 19:08:00,66.0,56.0,29.89,SE,131,0.0,1.0,70,0.00,,,0.00,VWS V14.01,2013-09-25 00:08:00,
2013-09-24 19:13:00,65.7,56.0,29.89,SE,131,1.0,1.0,71,0.00,,,0.00,VWS V14.01,2013-09-25 00:13:00,
2013-09-24 19:18:00,65.5,55.9,29.89,SE,130,0.0,1.0,71,0.00,,,0.00,VWS V14.01,2013-09-25 00:18:00,
2013-09-24 19:23:00,65.3,55.7,29.89,South,189,0.0,1.0,71,0.00,,,0.00,VWS V14.01,2013-09-25 00:23:00,
2013-09-24 19:28:00,65.0,55.4,29.90,South,189,0.0,1.0,71,0.00,,,0.00,VWS V14.01,2013-09-25 00:28:00,
2013-09-24 19:33:00,64.9,55.7,29.90,South,189,0.0,0.0,72,0.00,,,0.00,VWS V14.01,2013-09-25 00:33:00,
2013-09-24 19:38:00,64.7,55.5,29.90,SSE,165,0.0,2.0,72,0.00,,,0.00,VWS V14.01,2013-09-25 00:38:00,
2013-09-24 19:43:00,64.5,55.3,29.90,SSE,165,0.0,2.0,72,0.00,,,0.00,VWS V14.01,2013-09-25 00:43:00,
2013-09-24 19:48:00,64.3,55.1,29.90,SSE,165,0.0,2.0,72,0.00,,,0.00,VWS V14.01,2013-09-25 00:48:00,
2013-09-24 19:54:00,64.1,55.3,29.90,SSE,164,0.0,2.0,73,0.00,,,0.00,VWS V14.01,2013-09-25 00:54:00,
2013-09-24 19:59:00,63.8,55.0,29.90,SSE,164,0.0,2.0,73,0.00,,,0.00,VWS V14.01,2013-09-25 00:59:00,
2013-09-24 20:04:00,63.6,54.8,29.90,SSE,164,0.0,1.0,73,0.00,,,0.00,VWS V14.01,2013-09-25 01:04:00,
2013-09-24 20:09:00,63.5,54.7,29.90,SSE,165,0.0,1.0,73,0.00,,,0.00,VWS V14.01,2013-09-25 01:09:00,
2013-09-24 20:14:00,63.3,54.5,29.91,SSE,164,0.0,1.0,73,0.00,,,0.00,VWS V14.01,2013-09-25 01:14:00,
2013-09-24 20:19:00,63.1,54.3,29.91,SSE,164,0.0,1.0,73,0.00,,,0.00,VWS V14.01,2013-09-25 01:19:00,
2013-09-24 20:24:00,62.9,54.1,29.91,SSE,164,0.0,1.0,73,0.00,,,0.00,VWS V14.01,2013-09-25 01:24:00,
2013-09-24 20:29:00,62.7,54.3,29.91,SSE,164,0.0,1.0,74,0.00,,,0.00,VWS V14.01,2013-09-25 01:29:00,
2013-09-24 20:34:00,62.5,54.1,29.91,SSE,164,0.0,1.0,74,0.00,,,0.00,VWS V14.01,2013-09-25 01:34:00,
2013-09-24 20:39:00,62.3,54.3,29.91,SSE,164,0.0,1.0,75,0.00,,,0.00,VWS V14.01,2013-09-25 01:39:00,
2013-09-24 20:44:00,62.1,54.1,29.91,SE,129,0.0,3.0,75,0.00,,,0.00,VWS V14.01,2013-09-25 01:44:00,
2013-09-24 20:49:00,61.9,53.9,29.91,SE,129,0.0,3.0,75,0.00,,,0.00,VWS V14.01,2013-09-25 01:49:00,
2013-09-24 20:54:00,61.7,54.1,29.91,SE,128,0.0,3.0,76,0.00,,,0.00,VWS V14.01,2013-09-25 01:54:00,
2013-09-24 21:00:00,61.5,53.9,29.91,SE,129,0.0,3.0,76,0.00,,,0.00,VWS V14.01,2013-09-25 02:00:00,
2013-09-24 21:05:00,61.3,53.7,29.91,SE,129,0.0,0.0,76,0.00,,,0.00,VWS V14.01,2013-09-25 02:05:00,
2013-09-24 21:10:00,61.1,53.8,29.91,SE,128,0.0,0.0,77,0.00,,,0.00,VWS V14.01,2013-09-25 02:10:00,
2013-09-24 21:15:00,60.9,53.7,29.91,SE,129,0.0,0.0,77,0.00,,,0.00,VWS V14.01,2013-09-25 02:15:00,
2013-09-24 21:20:00,60.8,53.5,29.91,SE,129,0.0,0.0,77,0.00,,,0.00,VWS V14.01,2013-09-25 02:20:00,
2013-09-24 21:25:00,60.6,53.7,29.91,SE,129,0.0,0.0,78,0.00,,,0.00,VWS V14.01,2013-09-25 02:25:00,
2013-09-24 21:30:00,60.4,53.9,29.91,SE,129,0.0,0.0,79,0.00,,,0.00,VWS V14.01,2013-09-25 02:30:00,
2013-09-24 21:35:00,60.2,53.7,29.91,SE,129,0.0,0.0,79,0.00,,,0.00,VWS V14.01,2013-09-25 02:35:00,
2013-09-24 21:40:00,60.0,53.8,29.91,SE,129,0.0,0.0,80,0.00,,,0.00,VWS V14.01,2013-09-25 02:40:00,
2013-09-24 21:45:00,59.8,53.6,29.91,SE,129,0.0,0.0,80,0.00,,,0.00,VWS V14.01,2013-09-25 02:45:00,
2013-09-24 21:50:00,59.7,53.9,29.91,SE,129,0.0,0.0,81,0.00,,,0.00,VWS V14.01,2013-09-25 02:50:00,
2013-09-24 21:55:00,59.5,53.7,29.91,SE,129,0.0,0.0,81,0.00,,,0.00,VWS V14.01,2013-09-25 02:55:00,
2013-09-24 22:00:00,59.3,53.1,29.91,SE,129,0.0,0.0,80,0.00,,,0.00,VWS V14.01,2013-09-25 03:00:00,
2013-09-24 22:05:00,59.1,53.3,29.91,SE,129,0.0,0.0,81,0.00,,,0.00,VWS V14.01,2013-09-25 03:05:00,
2013-09-24 22:11:00,59.0,53.2,29.91,SE,129,0.0,0.0,81,0.00,,,0.00,VWS V14.01,2013-09-25 03:11:00,
2013-09-24 22:16:00,58.8,53.3,29.91,SE,129,0.0,0.0,82,0.00,,,0.00,VWS V14.01,2013-09-25 03:16:00,
2013-09-24 22:21:00,58.7,53.6,29.91,SE,129,0.0,0.0,83,0.00,,,0.00,VWS V14.01,2013-09-25 03:21:00,
2013-09-24 22:26:00,58.6,53.5,29.91,SE,129,0.0,0.0,83,0.00,,,0.00,VWS V14.01,2013-09-25 03:26:00,
2013-09-24 22:31:00,58.4,53.3,29.91,SE,128,0.0,0.0,83,0.00,,,0.00,VWS V14.01,2013-09-25 03:31:00,
2013-09-24 22:36:00,58.3,53.2,29.91,SE,129,0.0,0.0,83,0.00,,,0.00,VWS V14.01,2013-09-25 03:36:00,
2013-09-24 22:41:00,58.2,53.4,29.91,SE,129,0.0,0.0,84,0.00,,,0.00,VWS V14.01,2013-09-25 03:41:00,
2013-09-24 22:46:00,58.0,53.2,29.91,SE,129,0.0,0.0,84,0.00,,,0.00,VWS V14.01,2013-09-25 03:46:00,
2013-09-24 22:51:00,57.8,53.0,29.91,SE,129,0.0,0.0,84,0.00,,,0.00,VWS V14.01,2013-09-25 03:51:00,
2013-09-24 22:56:00,57.7,53.5,29.91,SE,129,0.0,0.0,86,0.00,,,0.00,VWS V14.01,2013-09-25 03:56:00,
2013-09-24 23:01:00,57.6,53.1,29.91,SE,129,0.0,0.0,85,0.00,,,0.00,VWS V14.01,2013-09-25 04:01:00,
2013-09-24 23:02:00,57.5,53.0,29.91,SE,129,0.0,0.0,85,0.00,,,0.00,VWS V14.01,2013-09-25 04:02:00,
2013-09-24 23:03:00,57.5,53.0,29.91,SE,129,0.0,0.0,85,0.00,,,0.00,VWS V14.01,2013-09-25 04:03:00,
2013-09-24 23:08:00,57.3,53.2,29.91,SE,129,0.0,0.0,86,0.00,,,0.00,VWS V14.01,2013-09-25 04:08:00,
2013-09-24 23:13:00,57.2,53.1,29.92,SE,129,0.0,0.0,86,0.00,,,0.00,VWS V14.01,2013-09-25 04:13:00,
2013-09-24 23:18:00,57.1,53.0,29.91,SE,129,0.0,0.0,86,0.00,,,0.00,VWS V14.01,2013-09-25 04:18:00,
2013-09-24 23:23:00,56.9,53.1,29.91,SE,129,0.0,0.0,87,0.00,,,0.00,VWS V14.01,2013-09-25 04:23:00,
2013-09-24 23:29:00,56.9,53.1,29.91,SE,129,0.0,0.0,87,0.00,,,0.00,VWS V14.01,2013-09-25 04:29:00,
2013-09-24 23:34:00,56.8,53.0,29.92,SE,128,0.0,0.0,87,0.00,,,0.00,VWS V14.01,2013-09-25 04:34:00,
2013-09-24 23:39:00,56.6,52.8,29.92,SE,129,0.0,0.0,87,0.00,,,0.00,VWS V14.01,2013-09-25 04:39:00,
2013-09-24 23:44:00,56.5,53.0,29.92,SE,129,0.0,0.0,88,0.00,,,0.00,VWS V14.01,2013-09-25 04:44:00,
2013-09-24 23:49:00,56.3,52.8,29.92,SE,129,0.0,0.0,88,0.00,,,0.00,VWS V14.01,2013-09-25 04:49:00,
2013-09-24 23:54:00,56.2,52.7,29.92,SE,129,0.0,0.0,88,0.00,,,0.00,VWS V14.01,2013-09-25 04:54:00,
2013-09-24 23:59:00,56.0,52.5,29.92,SE,129,0.0,0.0,88,0.00,,,0.00,VWS V14.01,2013-09-25 04:59:00,